Theta_e
300 300 301 301 300 301 300 300 300 300 302 306 306 306 307 307 302 300 305 310 307 308 311 313 317 319 320 322 324 325 333 333 330 328 328 328 327 327 328 327 327 329 329 329 330 331 332 335 335 334 343 346 342 345 350 353 353 355 359 360 358 357 355 354 353 353 352 351 348 347 346 344 343 342 342 341 341 341 341 340 340 337 333 329 326 325 325
299 299 299 300 300 299 300 300 300 301 301 307 309 307 310 309 306 307 308 310 309 310 312 314 318 321 323 324 329 334 332 331 330 328 328 328 330 330 329 327 328 330 330 331 331 331 334 339 342 348 350 350 350 353 358 360 360 361 359 357 355 354 353 352 351 350 349 347 345 344 342 341 340 340 340 340 339 338 337 337 337 335 330 328 325 323 322
295 298 300 300 301 302 298 300 300 300 300 302 307 307 311 311 309 310 308 309 309 312 313 316 319 321 324 330 331 332 331 331 331 329 329 329 331 333 333 329 328 331 331 331 331 334 343 347 351 353 355 356 357 358 360 360 359 358 357 355 353 351 349 348 346 344 343 342 342 340 340 339 338 338 338 337 336 335 335 334 334 334 330 326 324 323 322
292 297 298 299 299 299 298 298 299 299 298 300 302 305 311 308 306 307 307 306 306 312 314 317 319 322 328 329 330 331 331 331 330 328 329 331 333 334 333 333 332 334 332 331 334 344 352 354 355 357 358 358 358 359 360 358 357 356 354 352 350 348 347 345 343 342 341 340 339 338 337 336 335 335 335 334 334 333 332 330 329 329 329 327 325 323 323
291 296 298 297 299 298 295 296 299 300 299 301 304 307 313 312 311 307 304 306 312 313 316 317 318 323 325 328 330 330 332 331 329 329 331 333 335 336 338 338 338 335 332 334 341 353 356 357 357 359 360 359 359 358 356 356 355 352 350 349 347 346 344 342 341 340 339 338 337 336 335 334 334 333 332 332 332 330 328 328 326 325 325 327 325 324 322
291 297 299 300 296 289 291 303 304 306 304 303 302 300 305 312 312 309 313 313 314 314 316 318 318 322 325 327 330 332 332 331 328 330 333 335 337 340 344 345 340 336 341 345 350 357 358 359 360 361 361 359 358 357 355 354 351 349 348 347 344 342 341 341 340 339 337 336 334 333 333 333 332 332 331 329 329 329 327 326 324 324 324 323 324 324 322
291 294 298 294 289 289 302 311 312 314 312 310 307 306 310 311 313 313 312 311 314 315 317 320 322 325 328 329 331 333 334 333 331 332 334 336 339 343 346 347 346 347 353 355 357 358 359 360 361 360 358 357 355 353 352 350 349 347 345 342 341 340 340 339 338 336 335 334 332 331 331 330 330 330 329 326 326 326 326 324 323 322 322 322 324 325 322
297 295 293 289 288 301 309 312 313 317 314 313 309 309 313 317 317 314 312 312 315 316 315 320 323 324 325 328 333 335 335 334 332 333 335 338 342 346 348 349 351 355 358 358 359 359 361 360 359 358 355 355 352 351 351 348 346 344 342 341 339 339 338 337 336 335 334 332 331 330 329 329 328 328 327 326 325 327 326 324 324 324 323 323 321 321 321
296 294 296 296 303 303 306 309 310 311 307 308 305 302 307 316 317 318 313 313 315 315 314 318 323 324 325 325 327 335 337 336 336 336 336 340 344 349 351 353 355 358 360 360 360 360 359 357 356 355 354 353 350 348 345 343 342 341 340 339 338 338 337 336 335 333 331 330 329 328 328 327 325 324 323 323 324 325 322 322 321 322 321 322 322 322 323
300 295 293 293 293 292 299 309 314 317 316 314 312 309 306 316 319 320 318 316 316 317 318 322 327 328 324 320 323 332 337 338 336 336 337 340 343 350 353 354 356 358 360 361 360 358 356 355 354 353 352 350 347 344 341 341 340 339 338 337 337 336 335 335 333 332 331 329 329 328 327 325 324 324 324 323 323 325 321 321 321 321 321 321 321 323 322
300 298 292 293 293 296 304 309 313 317 319 319 314 309 303 313 318 320 325 322 318 319 321 324 325 323 318 318 324 331 336 337 337 336 338 341 345 350 353 354 355 358 359 359 357 356 354 352 352 352 349 346 343 341 340 339 338 337 336 336 335 334 333 333 332 331 330 329 328 327 326 325 325 324 323 324 325 323 322 322 322 322 323 319 319 320 321
300 298 295 293 299 301 309 311 315 320 322 316 310 298 299 312 319 321 328 330 328 321 324 324 320 320 317 320 326 331 336 339 338 338 338 340 345 348 353 356 358 359 359 356 354 353 351 351 351 349 347 344 342 340 339 338 337 335 335 335 334 333 331 331 330 330 330 329 327 326 325 325 325 324 325 323 321 322 321 321 321 320 320 319 316 316 317
301 303 297 298 302 312 317 315 317 320 321 313 302 296 303 315 319 323 326 325 328 331 326 323 320 322 324 327 330 330 337 339 339 339 341 342 347 348 351 353 354 357 356 355 353 352 351 350 349 347 345 342 339 339 338 336 335 334 334 333 332 331 330 330 329 328 328 328 327 326 325 325 326 326 324 322 322 322 321 321 320 319 318 317 317 315 315
297 297 297 297 300 309 313 314 318 321 311 301 301 310 316 321 320 323 324 325 329 332 330 328 326 326 330 335 337 337 337 338 338 338 341 345 347 349 350 351 353 355 354 352 351 350 350 348 347 344 342 339 338 337 335 333 333 333 332 331 330 330 329 328 328 328 327 327 327 326 326 324 322 322 322 323 323 322 321 320 319 318 317 318 315 314 314
301 299 295 294 290 306 316 317 315 318 308 308 314 318 321 324 325 324 324 326 329 331 328 328 327 327 331 334 334 336 336 335 337 344 344 346 347 348 350 352 352 352 350 349 348 347 347 346 344 342 340 337 336 335 333 332 333 332 331 330 329 329 329 328 328 326 327 328 327 327 325 324 322 322 323 323 322 321 318 316 315 314 313 313 312 311 311
296 295 294 294 300 307 317 316 307 314 317 317 320 320 319 324 325 324 324 326 328 330 328 328 329 330 332 335 336 336 335 334 333 337 348 350 349 351 351 351 349 350 348 347 345 344 344 343 341 340 339 336 335 333 331 332 332 331 330 329 329 329 329 327 326 328 328 327 325 324 323 322 321 320 321 321 320 319 316 313 311 311 310 312 310 311 311
304 302 304 309 315 315 317 320 316 320 323 324 323 326 324 325 325 327 325 326 329 330 329 330 331 332 335 335 335 333 333 333 334 333 332 338 348 350 347 347 348 348 345 343 341 340 340 339 339 338 338 336 334 331 331 332 330 329 329 329 329 327 326 326 326 325 324 323 323 323 322 321 320 320 319 319 317 316 315 311 310 310 310 312 310 311 310
313 315 315 318 315 317 319 320 322 322 324 326 328 327 326 327 327 328 326 328 329 330 331 330 330 331 334 333 334 333 332 331 333 335 337 337 336 341 344 342 342 341 341 340 339 336 336 337 336 336 336 335 332 330 331 331 329 329 329 328 327 325 325 325 324 324 323 322 321 321 321 321 321 319 319 318 316 314 314 313 312 312 312 312 312 311 308
305 301 310 316 316 318 318 318 321 323 325 326 328 328 328 327 328 329 330 329 329 329 329 330 330 331 332 331 331 332 332 332 333 334 334 335 336 335 337 339 340 340 339 337 335 335 333 334 335 335 334 333 332 331 330 330 329 329 328 328 328 326 323 322 322 321 319 317 317 317 317 317 317 317 316 316 317 316 313 312 313 313 313 313 312 310 308
301 302 309 316 318 318 320 316 317 320 323 326 328 329 329 330 330 330 330 332 330 330 330 331 331 331 333 331 330 331 331 332 332 332 332 333 334 336 336 338 339 338 337 335 334 334 333 333 334 334 333 332 331 331 330 330 330 329 329 328 325 323 322 322 321 320 321 324 318 313 313 312 311 311 312 313 313 313 312 311 310 309 309 310 311 308 305
308 310 310 315 314 314 316 319 321 321 323 325 327 328 329 331 331 331 332 333 331 330 329 331 331 330 331 332 331 331 331 332 332 331 332 332 332 333 334 336 337 335 334 334 333 333 332 332 332 332 331 331 330 329 330 330 330 329 328 329 325 323 322 322 322 323 319 316 314 312 310 310 309 308 309 309 309 308 308 307 310 310 309 309 311 307 306
303 304 305 313 308 305 314 320 322 322 324 327 327 328 327 328 329 329 330 331 333 332 332 331 331 329 330 332 333 332 332 332 332 332 332 332 332 332 333 335 335 334 334 332 331 331 331 331 331 330 329 329 329 330 330 329 329 328 328 325 324 323 322 321 319 317 315 313 312 312 310 309 309 310 313 308 308 309 310 316 312 309 310 309 308 306 307
301 307 313 314 311 312 316 319 322 325 326 326 327 328 329 330 329 330 331 329 329 330 332 332 331 330 331 332 333 333 333 332 332 332 332 331 332 333 334 333 332 332 332 332 331 331 330 331 330 329 328 328 328 328 328 328 328 327 325 325 323 322 322 320 319 317 314 311 310 308 308 307 307 308 306 307 299 303 314 313 303 294 294 299 306 312 312
310 312 315 318 314 314 318 321 325 324 325 326 328 330 331 331 333 333 332 330 329 328 329 333 334 332 333 334 334 333 333 333 332 332 333 333 333 333 334 332 331 332 331 330 330 330 330 330 329 328 328 328 328 328 328 328 327 326 325 324 321 321 320 321 321 318 313 312 310 308 306 305 305 305 302 301 304 302 299 302 299 293 294 296 298 300 304
310 314 317 318 317 317 320 323 325 326 326 325 326 329 331 331 333 334 333 331 331 331 331 332 333 334 334 334 334 333 332 332 333 332 332 332 333 332 332 332 331 331 331 329 329 329 329 328 328 328 327 328 329 329 328 328 327 325 324 322 320 320 321 321 319 318 314 311 310 308 306 306 305 303 302 302 300 301 306 302 299 296 293 291 291 295 298
318 318 320 323 323 323 325 322 322 324 325 328 328 332 341 340 335 334 332 332 333 332 332 333 333 334 334 333 333 333 333 332 333 333 332 331 331 331 331 331 332 332 330 329 329 329 328 328 328 328 327 328 329 329 329 328 327 326 323 321 320 320 320 319 316 314 312 310 308 307 307 306 304 303 306 304 302 303 304 305 305 302 297 292 292 295 297
323 323 322 320 320 321 320 319 321 327 328 331 336 337 338 338 340 333 332 331 332 333 332 333 334 334 333 332 333 333 332 332 333 332 331 330 331 331 332 333 333 332 331 329 328 329 330 329 328 327 327 328 329 329 328 328 326 325 322 320 320 325 326 322 315 313 311 308 307 307 308 310 311 311 311 310 312 309 306 307 305 303 302 304 304 297 303
323 322 321 315 315 318 323 325 325 327 327 331 335 335 334 334 333 331 329 328 329 331 331 332 332 332 331 332 333 332 333 332 331 331 330 330 331 332 332 332 332 331 330 329 328 331 330 327 327 327 326 328 329 329 328 327 326 324 322 321 321 320 321 320 316 313 310 308 308 310 311 312 313 313 316 316 316 313 314 313 311 307 307 302 303 311 305
322 325 326 323 321 323 325 326 327 327 326 330 334 335 335 333 332 331 329 328 328 328 329 330 331 331 332 332 333 332 332 331 330 330 330 331 332 332 332 332 332 331 329 329 328 328 326 325 325 325 325 327 328 329 329 327 325 324 324 323 322 319 317 315 314 313 312 312 311 313 320 319 317 315 318 317 319 316 316 316 315 311 304 304 306 307 312
320 324 325 324 326 326 323 322 323 326 328 329 332 334 335 333 331 329 329 328 328 329 329 328 328 329 331 332 333 333 332 331 330 331 331 332 332 332 332 331 330 329 328 327 326 325 324 324 324 324 325 326 329 329 329 327 325 324 323 323 322 321 318 316 315 315 315 314 315 322 321 320 318 316 319 319 320 319 318 319 318 314 308 305 317 308 305
319 320 322 324 324 323 322 322 323 327 328 328 328 331 332 332 331 328 328 328 327 329 329 330 329 330 331 332 333 334 333 331 330 330 332 331 331 331 331 330 327 326 326 326 325 324 324 324 324 324 325 327 330 329 328 326 324 324 323 322 323 327 328 327 324 318 318 319 320 321 321 321 320 321 321 319 317 314 313 316 315 313 311 309 308 307 306
316 318 319 318 319 320 321 321 323 325 326 329 330 330 331 331 328 328 329 328 328 330 330 330 330 330 331 332 333 332 331 331 331 331 331 330 330 330 330 329 329 331 327 326 325 325 324 323 323 324 325 328 329 328 327 325 324 323 321 325 323 323 329 330 326 324 323 324 324 323 323 320 317 319 320 319 314 314 312 309 309 309 307 306 306 307 307
315 312 313 315 319 319 319 319 322 323 325 328 330 331 332 333 332 331 330 330 330 331 331 330 330 330 331 332 332 331 331 331 331 331 330 329 329 329 328 329 328 327 326 326 325 325 324 323 323 325 327 329 328 327 326 325 323 322 322 322 321 323 329 327 325 323 325 323 322 320 320 319 317 316 315 316 315 316 310 309 310 310 309 306 303 303 308
313 313 313 314 315 315 318 319 321 322 323 328 329 329 330 331 331 330 330 331 331 332 331 331 331 331 331 331 331 330 330 329 328 328 328 329 328 328 328 329 327 327 326 326 325 324 324 324 325 326 328 329 328 327 326 325 323 323 322 321 322 322 323 322 324 322 321 320 321 325 322 322 318 315 318 318 316 313 313 313 315 313 308 307 304 306 309
318 318 319 320 321 322 323 322 323 323 327 328 328 329 328 329 331 331 332 331 331 332 332 332 331 331 332 331 330 330 329 329 329 329 328 329 328 328 328 327 327 326 325 324 324 324 324 325 326 328 329 329 328 327 326 325 324 323 322 322 323 322 321 323 321 321 320 319 321 318 317 317 317 325 324 318 314 316 317 315 314 313 309 306 306 310 310
315 316 317 319 320 321 321 322 326 327 328 329 330 330 330 330 330 330 333 332 331 332 332 331 331 331 331 330 329 329 329 328 328 328 328 328 328 328 328 326 325 324 323 322 324 325 325 326 333 333 328 328 327 327 326 325 324 323 323 323 323 322 322 322 321 321 322 320 320 320 318 321 321 321 323 316 315 316 313 312 311 311 309 308 308 308 308
316 316 316 318 320 321 322 322 323 325 326 328 329 330 330 330 331 331 332 330 331 332 331 331 331 330 331 331 331 330 329 328 329 328 328 329 329 328 327 325 325 323 323 322 323 325 325 327 335 335 330 328 327 326 328 332 324 324 324 322 321 320 321 320 321 319 319 320 319 318 320 322 317 317 322 313 314 313 312 310 314 311 309 312 313 312 312
318 318 318 319 320 320 320 323 326 325 328 329 330 333 333 331 329 329 330 331 331 333 332 332 332 332 330 329 328 328 328 329 329 328 329 329 328 327 326 325 324 324 323 323 325 326 325 329 334 332 326 326 326 327 331 334 331 325 322 322 321 321 321 321 321 321 320 318 322 317 318 315 313 313 313 311 310 312 313 312 313 313 311 313 314 312 314
319 321 323 324 324 323 324 326 327 328 328 327 326 327 330 332 331 330 329 329 330 332 332 331 330 330 330 329 328 327 328 328 329 329 329 329 328 327 326 326 326 325 324 326 327 325 327 330 329 326 325 325 326 326 333 335 333 322 321 321 320 320 320 320 319 320 319 320 318 316 314 313 313 313 311 310 308 313 320 316 312 318 313 312 312 311 311
322 323 324 326 325 325 325 325 326 327 329 329 328 326 330 332 330 330 330 329 329 331 332 331 331 330 329 329 328 327 328 329 330 331 330 328 326 325 325 325 326 326 328 331 326 325 328 332 328 324 325 325 326 327 331 333 330 323 321 320 320 320 319 320 319 318 319 318 318 321 314 315 314 314 313 312 311 312 312 314 315 314 314 314 312 311 314
323 324 325 325 325 324 323 323 323 324 326 327 327 327 329 330 329 328 329 329 330 332 332 332 331 331 331 331 330 328 329 330 331 330 330 328 326 324 324 323 326 328 328 326 325 326 329 329 326 325 324 326 325 329 329 333 326 321 320 319 320 319 318 318 318 318 318 316 317 315 313 313 314 315 314 312 312 310 311 312 313 313 311 313 313 311 311
320 322 323 323 323 324 324 323 322 322 323 325 328 328 329 328 329 329 328 327 328 331 331 332 335 333 333 332 330 329 329 330 331 330 330 328 326 325 324 325 328 327 330 330 328 328 327 326 327 328 326 326 326 333 332 330 323 321 320 321 320 320 319 319 318 318 318 317 316 315 314 313 312 311 311 312 310 311 310 312 311 312 311 313 312 314 312
320 319 320 322 323 322 322 322 322 322 323 324 325 325 327 329 329 329 329 328 330 330 330 332 336 337 335 333 330 329 329 330 330 329 330 329 329 329 328 327 328 328 329 328 326 325 325 325 325 325 330 328 328 330 333 326 322 321 321 321 322 321 320 319 317 318 317 316 315 313 313 312 311 309 309 309 309 310 310 310 310 310 313 310 311 312 314
321 320 319 322 322 323 322 322 322 323 322 323 323 323 323 324 327 328 328 329 330 330 330 330 334 335 335 334 332 328 328 329 329 330 329 327 328 329 329 328 328 328 328 328 326 325 324 324 324 328 334 332 332 331 329 325 323 322 321 321 321 320 319 318 317 316 316 316 315 313 312 313 311 309 309 308 308 307 309 310 308 308 309 309 310 313 313
319 319 321 321 322 323 322 322 322 322 323 323 321 322 321 321 323 324 326 326 327 328 329 330 331 333 333 333 332 332 332 332 331 331 328 326 325 326 328 332 330 329 329 329 326 325 324 324 326 329 331 331 329 332 327 324 324 323 322 322 321 319 318 318 317 316 316 316 315 313 313 312 311 310 309 309 312 309 309 310 310 310 311 311 310 312 312
319 319 322 327 323 322 322 322 323 324 324 322 321 322 324 321 322 323 324 324 324 328 329 331 330 331 331 331 330 332 333 334 333 333 332 330 328 329 330 331 330 330 329 329 325 324 323 329 327 326 329 330 331 331 326 324 324 323 322 322 321 320 319 318 318 317 316 315 314 313 313 312 311 309 308 308 310 311 310 313 313 312 311 312 312 312 312
319 320 320 321 321 321 322 323 324 323 323 321 320 319 321 322 322 323 324 325 325 326 328 329 330 331 332 332 330 329 329 330 331 332 332 332 332 332 331 332 332 330 329 327 325 324 324 326 325 325 328 329 333 328 325 324 323 322 322 322 322 321 319 317 317 317 317 316 316 317 319 315 312 310 312 313 310 312 311 312 312 312 312 315 315 318 320
319 319 319 319 319 320 321 321 322 320 319 319 320 318 321 321 320 320 323 326 328 327 325 325 327 329 330 331 331 332 333 332 329 330 333 332 332 331 331 330 329 329 329 331 331 330 327 327 325 324 326 331 332 327 325 324 323 322 321 322 322 321 319 317 316 316 316 316 318 316 315 315 313 311 311 311 309 310 310 312 313 313 312 314 314 313 315
320 320 320 320 319 320 320 321 320 320 319 320 322 320 321 322 321 321 323 327 328 327 328 329 328 327 328 330 331 330 332 335 334 332 334 334 332 331 331 331 329 328 327 327 327 326 326 324 324 324 325 334 329 326 325 324 323 323 322 322 322 321 320 318 317 317 317 317 317 316 316 316 314 311 311 312 312 310 311 313 313 313 314 314 313 314 315
319 319 319 318 318 318 318 319 319 318 321 322 321 320 321 323 322 321 323 326 327 329 329 329 330 329 328 328 330 330 331 332 332 334 334 334 333 331 330 329 328 328 330 327 326 325 330 324 324 325 328 329 328 326 325 324 323 323 322 324 323 320 320 318 321 320 318 318 317 317 317 316 314 314 315 313 312 312 312 313 314 317 322 320 314 315 314
317 318 317 320 319 318 318 317 317 319 320 321 322 323 324 323 322 323 323 324 327 328 327 327 327 328 328 328 328 329 330 331 331 335 333 333 332 332 332 330 328 327 327 327 326 324 324 324 324 328 329 328 327 326 325 324 323 323 325 322 322 320 319 317 317 318 317 317 317 316 316 316 315 314 315 315 315 314 314 315 314 314 315 314 313 314 314
315 315 315 316 318 318 318 317 317 319 320 321 321 322 322 322 324 322 322 333 327 326 328 327 326 327 328 329 329 329 329 330 331 332 334 332 331 330 331 331 327 327 327 326 324 324 324 325 328 330 330 327 326 326 328 328 324 322 323 323 325 321 321 319 318 318 318 320 318 316 317 316 315 315 314 314 315 315 314 314 315 314 314 313 313 313 313
Wind_Speed
4 4 6 6 3 2 4 5 3 5 6 5 10 9 4 11 8 11 8 9 9 9 9 10 10 9 11 11 10 6 7 7 7 8 10 10 9 7 7 9 11 13 12 11 12 11 10 9 8 8 7 5 5 7 8 8 8 8 8 9 9 9 9 10 9 8 8 8 8 9 9 9 9 9 8 8 7 7 8 8 8 9 9 9 9 9 7
2 3 4 6 6 4 5 6 7 1 5 11 12 7 8 15 10 10 11 10 12 8 9 10 10 9 7 6 4 4 7 9 10 10 11 11 9 9 7 9 11 11 14 13 12 10 9 9 8 8 7 8 9 10 9 9 10 9 10 10 11 10 11 10 8 8 9 9 9 9 10 10 8 8 8 8 8 9 9 8 8 8 9 8 8 7 7
3 5 5 2 0 0 5 9 7 3 3 7 8 3 9 11 0 1 5 8 9 6 6 8 7 7 4 5 7 7 7 10 11 11 10 10 9 9 9 7 8 10 12 13 11 10 9 10 11 9 9 9 8 10 11 11 12 10 12 12 11 12 11 9 10 9 10 9 9 10 9 9 8 8 8 8 8 8 8 8 8 8 8 8 7 6 7
6 4 5 8 8 8 6 7 9 8 5 3 4 8 8 8 8 5 4 5 7 7 3 1 3 3 7 10 9 6 6 7 12 12 10 10 9 9 9 9 6 6 8 10 12 12 11 11 11 11 10 10 10 10 10 12 11 11 12 12 13 11 11 10 10 10 10 10 10 9 9 9 9 8 8 8 8 8 8 9 8 8 9 7 6 6 5
3 7 3 6 6 8 8 9 13 12 5 2 3 2 8 12 10 8 8 12 12 9 5 7 5 7 7 8 8 6 6 6 10 14 12 9 9 10 10 11 10 9 9 11 14 13 12 12 12 13 14 12 11 11 11 10 11 12 12 13 12 12 11 11 10 10 10 11 10 9 9 9 8 8 8 9 9 9 9 7 8 9 6 5 4 3 4
3 8 6 4 7 4 2 7 5 5 2 5 5 5 4 10 7 6 14 10 8 5 8 12 11 9 8 8 8 7 12 9 6 10 11 10 9 8 9 11 12 11 8 7 12 15 14 12 13 12 13 14 12 11 12 11 13 12 13 12 12 12 11 11 10 10 10 11 10 9 8 9 9 9 9 9 8 8 7 7 7 6 5 4 3 3 4
3 4 6 5 3 2 4 8 5 5 3 12 8 4 10 5 3 4 4 4 8 10 13 15 14 12 9 5 7 5 6 10 11 12 10 11 12 12 12 11 12 12 12 9 8 9 10 12 12 12 11 13 13 12 12 13 12 13 12 13 12 11 12 10 11 10 11 11 10 9 9 8 9 9 9 9 8 6 6 6 5 5 4 4 3 3 3
2 4 3 1 3 5 4 8 7 13 12 11 12 7 9 10 13 10 6 5 9 11 10 11 9 9 6 3 4 8 8 10 11 12 11 11 12 13 13 15 14 15 15 14 13 11 9 11 10 12 14 13 14 12 11 13 12 12 13 13 12 11 11 10 10 10 11 11 10 9 9 9 10 10 9 8 7 6 5 5 4 4 4 4 4 4 3
0 1 1 4 4 5 9 8 8 7 3 6 2 1 5 7 10 10 6 4 8 8 5 5 6 4 4 3 4 6 6 8 10 14 14 14 13 14 13 16 15 15 15 15 14 13 11 11 13 12 12 13 14 14 13 12 13 12 13 13 12 12 11 11 10 10 11 11 10 9 9 10 10 9 8 7 6 5 6 5 5 5 5 4 4 4 3
3 2 3 3 4 1 6 5 7 2 4 8 3 4 4 11 17 12 8 0 4 4 5 8 8 10 8 4 7 9 9 6 7 3 6 5 3 10 13 10 14 13 13 15 15 17 15 13 13 13 14 14 15 14 14 13 13 12 13 12 11 11 11 10 10 10 10 10 10 9 9 9 8 7 6 6 6 5 7 6 6 5 4 5 4 4 4
1 2 1 1 1 2 4 10 9 8 4 8 2 6 6 7 14 15 8 7 4 2 9 8 8 9 8 8 8 10 7 5 6 9 7 8 8 6 12 17 15 14 16 18 17 17 18 17 14 14 15 16 16 15 13 13 13 13 12 12 11 11 11 10 10 10 10 10 10 9 8 7 7 7 7 6 5 5 6 6 6 5 5 5 5 5 4
3 2 1 1 2 1 2 7 7 9 7 1 3 3 3 6 13 13 10 11 9 7 4 2 5 9 9 8 9 6 6 7 6 11 11 9 10 6 4 6 13 16 14 15 15 16 16 16 16 15 15 14 15 15 13 12 12 12 11 10 10 11 11 11 10 10 9 10 8 8 8 7 7 7 6 6 6 7 6 6 6 5 4 5 5 4 3
2 4 2 1 1 3 5 5 8 9 1 8 8 3 3 4 7 9 9 11 12 9 10 8 7 7 1 5 9 8 1 1 0 3 4 7 7 8 8 8 6 8 14 17 17 16 15 17 16 15 13 14 13 12 12 11 11 10 10 11 11 11 11 11 10 10 8 8 9 8 7 7 7 6 6 7 7 7 7 6 5 6 5 3 4 3 2
4 3 2 4 2 3 2 6 5 5 4 3 2 3 2 2 4 5 8 12 12 10 9 6 4 3 6 11 14 17 18 15 13 5 5 5 5 3 2 6 7 7 5 9 13 12 11 14 15 14 15 14 12 11 11 12 11 10 11 11 10 11 11 10 9 9 8 7 8 7 6 5 6 6 5 6 7 6 6 5 5 5 3 3 3 3 3
1 2 2 2 1 2 3 4 4 6 6 5 4 1 5 3 2 6 9 9 7 8 7 5 4 4 9 11 12 13 14 16 18 14 4 1 9 9 9 7 6 10 8 7 11 12 10 10 11 13 17 16 13 12 13 12 11 11 11 11 11 11 10 9 8 7 6 7 6 5 5 6 6 7 7 8 7 7 6 6 6 5 3 3 3 3 3
3 1 2 1 3 3 3 1 4 1 3 5 4 4 1 5 4 5 6 6 4 4 7 5 4 4 6 8 11 14 14 16 17 19 12 4 2 7 6 7 8 10 12 10 9 9 8 7 7 9 15 16 13 14 13 10 11 11 11 11 11 11 9 8 7 6 6 6 5 5 6 7 7 8 9 8 7 6 6 6 6 5 3 4 3 4 5
1 1 3 3 3 4 4 1 3 2 0 1 4 8 4 2 4 1 4 3 1 3 5 3 3 4 5 6 10 14 11 16 17 17 17 19 10 1 9 11 11 11 13 14 12 11 9 10 8 8 9 15 14 13 9 9 11 11 11 11 11 10 9 7 7 6 7 6 5 5 5 7 8 8 9 8 8 5 6 6 5 5 3 3 4 3 5
1 1 2 2 2 1 4 2 1 4 5 4 6 8 5 1 1 1 4 2 2 1 1 5 2 4 4 7 8 13 15 16 17 17 16 15 20 17 5 9 12 12 13 13 14 14 11 10 9 9 10 13 16 11 10 10 10 11 11 10 9 8 6 6 6 7 7 6 6 6 6 6 7 6 8 7 7 6 6 5 3 4 3 2 2 3 3
4 1 3 1 1 0 1 1 2 3 4 3 5 6 5 5 4 3 2 3 3 3 3 6 6 4 5 10 7 8 14 16 16 15 18 15 13 16 15 5 12 13 14 14 13 12 11 7 9 10 12 10 12 12 11 11 11 11 10 10 9 8 8 7 5 6 8 6 6 6 6 6 6 6 6 7 7 7 6 6 4 3 2 2 2 2 3
2 1 4 4 3 2 2 2 2 2 4 5 5 5 6 6 4 3 3 2 2 3 6 6 10 8 6 9 9 9 9 12 14 13 17 16 13 11 16 12 8 12 13 13 14 13 11 8 8 9 10 11 11 12 12 11 11 11 11 11 11 11 10 8 6 6 7 10 9 6 5 7 7 6 5 6 7 7 7 7 6 3 3 3 2 2 3
3 4 3 3 4 5 5 5 1 1 3 7 5 5 5 5 7 5 5 6 5 5 7 6 11 11 5 6 11 13 12 12 12 12 14 17 16 10 11 14 8 8 9 12 11 12 10 8 8 9 9 9 10 11 11 11 11 12 11 11 11 11 10 9 8 7 7 7 7 7 6 6 6 4 6 6 7 4 1 1 5 7 5 2 2 2 1
2 4 3 2 1 2 1 1 2 3 4 9 5 4 5 5 5 4 6 6 5 6 4 3 8 12 8 6 9 12 11 14 14 15 16 18 18 14 7 6 10 6 8 10 11 10 8 7 8 9 9 8 7 8 8 8 9 10 10 9 9 9 9 8 7 7 7 7 7 7 7 8 8 6 8 9 5 5 4 4 5 2 2 3 4 2 1
4 7 8 5 6 3 4 2 2 1 2 6 7 5 4 2 3 4 6 5 4 4 3 2 6 8 10 9 10 12 11 12 12 13 17 18 16 14 11 11 7 7 4 8 10 10 8 7 8 9 9 8 8 7 7 7 8 9 9 9 8 8 9 8 8 7 7 7 7 7 7 7 7 7 6 6 9 10 7 5 3 4 5 4 2 1 0
5 5 6 5 4 4 1 1 1 2 4 6 5 4 4 4 5 4 5 5 8 3 3 3 2 7 9 11 14 14 11 12 14 13 12 16 18 15 14 14 12 4 2 4 7 8 7 7 7 8 9 9 9 8 8 8 8 9 8 9 9 9 9 8 9 8 7 8 7 8 7 6 7 7 7 7 4 6 5 4 4 2 1 1 1 2 4
6 5 5 5 5 3 2 1 1 1 4 7 6 5 6 5 3 5 7 4 3 8 7 6 4 6 12 11 14 17 15 12 13 13 14 17 18 16 14 14 14 12 3 2 3 4 5 6 8 9 10 9 9 8 8 8 8 8 8 9 10 10 9 9 9 9 8 8 7 7 7 7 6 6 7 7 7 3 0 1 2 5 6 5 4 4 5
7 5 5 4 3 2 0 1 5 3 1 4 3 1 3 6 6 5 5 5 4 4 5 7 8 7 8 11 8 11 13 15 15 13 11 16 18 16 15 14 15 13 9 3 3 4 5 7 8 8 9 9 8 8 8 8 7 8 9 9 9 9 9 9 9 8 8 8 8 7 6 6 7 6 6 7 7 6 5 1 0 3 5 5 6 6 7
3 5 8 5 3 2 3 4 1 1 2 3 7 5 4 5 5 4 4 2 3 4 5 5 7 8 4 3 6 8 15 15 14 12 11 17 21 20 17 15 14 14 13 8 6 6 8 8 7 8 8 8 8 8 7 8 7 8 9 9 8 10 15 11 8 8 8 8 8 7 6 6 6 5 5 4 4 6 6 5 4 3 2 1 3 6 4
2 4 5 6 5 3 1 3 4 2 4 6 6 6 4 6 6 6 4 3 2 0 1 1 5 8 8 7 9 9 11 16 17 15 13 15 16 16 17 17 14 13 12 10 8 8 7 7 7 7 8 7 8 8 8 8 8 8 9 9 9 8 8 10 8 8 8 7 7 7 7 7 6 5 4 4 5 4 3 3 3 3 1 3 3 5 6
0 2 0 4 6 6 4 3 3 4 4 4 5 5 4 5 6 4 3 2 2 1 2 3 2 3 6 10 11 14 12 13 16 19 15 13 15 16 16 15 13 14 12 10 8 7 7 7 7 8 8 7 7 8 8 8 8 8 8 8 8 7 7 7 7 7 7 7 7 7 6 5 4 5 4 4 3 3 3 4 3 3 4 2 2 2 1
2 2 3 4 4 5 5 6 5 4 4 5 8 5 4 5 4 3 4 4 3 5 5 3 3 4 4 8 11 13 12 9 4 5 14 16 17 18 17 15 14 13 11 9 9 9 10 9 9 9 8 6 8 8 9 8 8 7 7 7 7 7 7 7 6 7 7 7 7 8 6 5 5 5 4 4 5 5 5 5 4 4 3 3 2 2 1
4 4 5 3 3 4 7 6 5 4 4 4 5 5 2 3 4 5 5 4 3 4 4 5 4 4 5 8 8 8 7 5 4 2 6 6 14 16 17 18 17 15 14 13 12 10 9 8 8 8 6 6 8 8 8 8 7 7 6 6 6 9 11 10 7 7 7 6 6 6 5 5 5 5 5 5 5 5 6 6 4 4 4 4 3 3 4
5 6 6 4 3 2 3 4 5 5 4 4 5 4 5 5 4 5 5 6 7 6 6 5 6 7 6 6 6 6 6 8 9 8 7 4 5 9 12 14 15 14 13 12 10 10 9 8 8 7 5 6 7 8 8 8 7 7 6 6 6 6 8 11 7 7 5 5 6 6 6 6 6 7 6 6 7 7 6 6 5 4 4 4 4 4 3
2 4 3 0 2 4 5 4 5 4 3 4 5 5 5 4 4 4 6 5 5 5 5 6 5 5 5 7 7 7 7 8 7 8 9 8 5 4 4 6 9 12 12 11 10 10 9 9 8 6 6 7 8 8 8 8 7 7 6 6 6 5 5 6 7 6 6 6 6 6 6 7 7 7 7 6 5 6 6 6 4 4 4 4 5 4 3
6 7 7 6 7 7 8 6 5 5 4 4 4 4 4 4 4 3 4 5 4 5 7 7 6 5 5 7 7 7 7 8 8 7 7 8 7 6 4 5 8 10 9 9 9 8 7 7 7 7 7 8 8 8 7 8 7 7 6 6 6 6 6 5 5 5 5 5 5 4 5 5 6 6 5 5 6 6 5 4 4 3 3 3 4 4 4
6 4 4 4 4 4 3 4 4 4 5 5 3 3 4 4 4 5 4 6 7 7 4 4 5 5 5 6 7 8 9 10 9 9 9 8 7 7 6 8 9 10 9 8 8 8 7 7 6 7 7 8 8 7 7 7 7 7 5 6 6 5 5 5 5 6 6 6 4 5 4 4 5 5 5 6 6 6 6 4 4 3 3 3 4 3 2
7 6 4 5 5 6 5 4 3 4 6 6 6 4 4 4 4 4 6 6 3 3 4 5 5 5 6 7 8 9 9 6 6 6 6 6 8 8 8 8 10 11 10 8 6 8 7 7 9 9 8 8 7 7 7 7 6 6 6 6 6 5 5 5 5 4 4 5 4 3 5 5 4 4 4 5 6 5 6 5 4 3 4 4 4 3 3
5 7 5 4 4 6 6 5 4 4 3 4 3 2 2 4 5 4 2 2 4 5 5 5 6 7 9 9 8 6 4 5 6 7 8 8 8 9 8 7 9 11 11 10 8 8 8 8 11 13 8 7 8 8 9 12 7 7 6 6 6 6 6 6 5 5 4 3 4 4 4 4 4 4 4 5 6 6 6 6 4 4 4 4 3 4 4
4 6 6 5 5 4 4 4 5 5 4 2 1 1 4 4 3 3 3 4 3 5 6 7 8 7 4 3 3 4 4 5 6 7 8 10 9 10 8 8 8 9 9 10 9 9 8 10 15 9 6 7 7 8 10 15 10 8 7 6 6 6 6 6 5 4 5 4 4 5 5 5 6 4 4 5 6 7 7 6 5 5 5 4 4 4 4
5 4 5 4 5 5 5 5 6 5 5 5 3 3 3 2 4 4 3 3 3 3 5 5 4 4 5 5 5 4 4 5 7 8 8 8 8 10 7 6 5 4 3 6 9 8 9 10 8 7 6 6 7 7 10 14 13 8 7 6 6 6 6 5 5 4 4 4 5 4 5 6 5 5 6 7 5 5 5 7 6 4 6 5 4 6 6
6 7 6 6 6 4 5 5 5 5 4 4 5 3 3 1 3 4 4 3 2 3 4 4 5 6 6 6 6 5 4 6 7 8 8 8 8 8 6 4 3 5 7 10 8 7 10 12 9 7 6 6 7 7 7 11 10 7 7 6 6 6 6 5 5 5 5 5 6 6 6 6 6 5 4 5 4 4 4 4 5 4 4 4 4 6 6
5 6 5 7 5 4 4 4 4 4 4 4 3 2 1 2 3 4 4 5 5 5 6 6 7 6 7 8 7 5 4 5 6 6 8 10 9 8 7 7 6 7 10 10 9 8 11 9 7 8 6 7 6 7 7 11 9 7 7 7 6 7 6 6 6 6 6 7 7 7 7 6 6 6 5 4 4 4 4 4 4 5 5 6 7 7 6
4 4 5 4 4 4 4 3 3 4 4 3 2 1 0 1 4 6 5 3 2 4 4 4 7 7 6 5 6 7 6 7 8 7 7 8 10 9 10 10 9 8 12 13 11 10 9 8 7 7 7 7 6 10 10 8 7 7 6 6 6 6 6 6 6 6 7 7 8 7 7 6 6 7 5 5 4 4 5 4 4 5 6 5 5 5 5
3 3 3 3 3 3 3 3 3 3 3 3 3 2 1 0 1 1 2 3 4 5 5 4 6 8 7 7 8 8 6 7 10 10 9 9 10 13 13 8 6 8 16 10 9 8 8 7 7 6 8 8 7 12 11 7 7 7 6 6 6 6 6 6 6 7 7 7 7 7 7 7 7 7 6 6 6 5 6 6 7 6 6 7 6 4 4
5 4 1 1 3 2 3 3 2 2 2 3 3 2 2 1 0 0 1 4 5 5 6 5 6 7 7 8 9 9 8 9 10 10 10 7 6 6 0 5 7 10 16 10 9 8 8 8 7 9 12 12 12 13 8 6 6 6 6 6 6 6 6 6 6 7 8 7 8 7 7 7 7 7 7 6 6 6 6 6 6 6 6 6 6 6 6
5 4 6 3 1 0 1 1 1 3 3 0 1 1 1 1 1 1 1 1 2 4 5 6 6 6 7 8 9 10 10 11 11 11 10 9 8 9 5 7 9 9 12 12 9 8 8 8 10 13 11 14 14 14 7 7 6 7 6 6 6 5 5 6 7 7 8 8 8 7 7 7 7 7 7 6 6 6 7 7 7 7 6 6 7 6 6
6 6 7 3 2 2 1 2 2 1 0 0 0 1 1 3 3 1 1 1 3 4 6 7 7 7 6 6 6 7 7 8 9 11 11 12 13 11 10 10 9 9 15 16 8 8 8 13 15 14 13 15 14 11 7 7 7 6 6 6 6 4 5 5 6 7 7 7 7 7 7 7 6 6 6 6 7 7 7 7 6 6 6 7 6 6 7
5 5 9 3 2 2 2 1 1 1 1 0 1 3 1 1 3 3 3 3 3 3 4 4 6 7 8 8 8 7 6 6 5 6 6 6 4 5 11 15 12 13 12 10 8 9 9 12 14 16 15 15 15 8 7 7 7 7 7 7 6 6 5 6 6 7 7 7 7 8 7 8 7 7 6 6 7 7 7 7 7 7 7 7 7 7 7
6 4 7 3 1 2 3 3 1 2 2 3 3 3 2 3 3 3 2 2 3 3 3 3 3 3 5 6 6 7 9 10 9 8 7 6 5 6 8 9 10 14 15 10 12 11 16 17 18 18 17 16 12 8 8 7 8 7 8 7 7 6 6 5 5 6 6 7 8 7 7 7 7 7 7 7 8 8 7 7 7 7 7 7 7 8 7
3 4 3 2 1 2 1 0 1 0 1 1 1 2 2 2 2 2 2 4 4 4 5 5 5 5 5 6 6 6 5 7 10 10 10 8 8 8 9 11 15 18 14 10 10 8 15 18 19 19 18 16 10 8 8 8 8 8 8 7 7 7 6 6 6 6 7 7 7 7 7 7 7 7 7 8 8 7 7 7 8 7 7 7 7 7 7
3 1 1 1 1 1 1 0 1 1 2 2 3 3 2 2 1 3 2 4 5 5 5 5 5 6 6 6 6 5 5 5 2 2 7 9 8 8 9 10 10 15 14 10 10 9 13 20 19 18 14 11 9 9 8 9 8 8 7 7 7 6 6 6 7 9 9 8 7 7 7 7 7 8 8 8 8 8 8 8 7 9 11 8 7 7 7
1 1 2 2 3 3 2 2 3 3 2 3 4 2 2 3 3 2 3 4 4 5 5 5 5 4 4 5 5 4 4 4 4 5 7 7 9 9 10 10 11 11 12 10 9 9 9 10 10 12 12 11 9 9 9 9 8 8 8 7 6 6 5 6 6 8 8 7 7 7 7 7 7 7 7 7 8 7 7 7 7 7 7 7 7 7 7
2 2 3 2 4 5 3 3 3 2 3 3 3 3 3 3 4 3 4 6 5 5 5 6 6 6 5 5 5 4 4 5 5 5 7 8 9 9 9 10 9 11 12 10 9 9 9 10 11 12 12 10 9 9 8 10 8 8 7 6 6 6 6 6 7 7 7 8 7 7 7 7 7 7 7 7 7 7 7 7 7 7 7 7 6 6 6
Wind_Direction
242 239 248 262 268 231 247 279 268 167 208 235 178 201 154 148 171 195 220 186 186 193 188 180 188 193 192 199 207 188 171 142 138 147 162 171 174 165 169 174 176 174 176 175 175 177 177 168 164 163 151 150 149 144 145 148 148 150 142 131 124 120 115 112 112 112 106 97 96 93 91 87 83 81 79 76 70 66 65 68 70 77 86 86 85 79 70
339 308 275 273 257 266 280 274 270 196 173 185 205 193 171 176 198 192 189 186 203 192 198 190 190 196 170 199 149 156 143 139 143 148 154 161 156 158 173 181 173 179 173 171 174 173 168 158 150 147 145 145 154 146 141 138 134 134 125 121 120 117 113 113 109 103 100 97 93 90 85 83 82 80 78 75 73 72 70 70 75 81 84 83 79 83 81
316 303 317 314 75 195 309 300 290 284 196 183 214 224 208 197 74 177 176 183 219 245 189 188 197 185 144 143 152 179 153 147 144 147 150 150 152 154 155 173 177 172 174 170 164 159 158 154 152 147 145 141 145 139 137 134 131 133 123 120 116 116 112 110 107 103 98 95 92 87 89 86 81 77 76 78 77 75 73 70 71 81 87 82 77 70 68
313 309 343 327 360 2 341 311 311 301 304 300 191 212 190 174 195 159 124 188 232 251 172 220 203 124 156 168 173 171 166 163 142 139 151 150 148 148 150 148 146 162 164 158 158 157 155 154 147 141 136 136 135 133 130 127 127 124 118 117 116 111 111 108 105 102 101 98 93 92 89 85 83 83 82 79 77 75 73 71 70 71 70 71 71 68 68
277 263 335 344 10 13 356 338 325 306 283 233 236 210 166 202 163 140 175 216 205 197 166 142 192 176 201 175 174 165 164 179 152 149 155 156 147 146 148 145 147 152 163 167 161 157 152 153 151 147 140 134 132 133 126 124 121 115 114 115 113 110 110 108 107 105 103 99 97 93 90 90 88 84 80 76 78 81 76 74 70 68 75 82 91 93 83
256 305 14 19 29 16 275 281 275 320 342 14 352 316 214 201 162 194 199 207 171 139 163 162 187 189 197 185 200 185 164 160 158 158 153 154 148 142 141 143 144 145 150 180 164 159 156 153 145 143 137 129 127 124 120 119 115 115 115 111 111 113 111 110 110 107 104 101 98 98 96 92 89 85 82 84 83 81 83 77 79 81 80 86 88 89 86
284 326 21 19 348 239 250 288 286 341 7 24 12 74 51 11 314 258 229 68 155 180 177 175 182 189 196 186 155 195 179 154 162 165 160 155 154 147 142 139 142 145 147 152 147 137 138 137 132 122 115 119 120 117 120 116 116 116 114 115 114 115 112 112 111 109 107 105 105 103 99 95 90 87 87 84 81 86 91 92 93 90 78 69 65 75 93
18 35 26 67 231 237 294 303 360 2 13 6 19 14 9 30 29 348 243 189 184 178 184 187 175 171 182 176 194 193 180 166 159 157 166 168 156 150 154 147 148 147 148 150 148 139 133 127 124 125 128 129 122 121 119 118 117 116 117 114 116 116 115 117 116 117 114 112 110 108 102 94 92 92 91 98 104 105 98 90 81 79 64 62 55 61 83
180 192 169 212 295 333 341 354 355 13 343 313 28 330 297 15 24 15 327 233 183 177 189 105 105 127 106 123 265 275 219 171 175 167 169 171 170 157 162 152 156 151 145 140 136 131 131 131 130 130 129 125 120 119 115 116 116 118 117 118 121 122 122 122 121 120 117 115 112 107 102 98 100 106 111 111 114 114 101 97 90 74 72 61 57 64 76
120 118 350 357 25 351 282 264 265 259 251 257 241 120 308 358 1 360 15 122 130 139 109 127 127 112 101 174 248 246 248 211 149 124 144 136 175 170 154 147 140 141 137 132 136 136 135 134 134 133 132 127 123 120 121 123 121 120 121 124 127 125 123 121 118 114 112 111 110 105 102 110 118 119 117 116 118 112 109 104 89 86 78 69 53 49 56
28 54 120 215 144 243 223 287 306 309 295 281 34 72 14 323 356 343 6 11 24 122 134 144 123 110 146 204 230 239 227 227 145 148 161 156 155 183 160 151 147 146 145 143 143 140 138 137 141 136 131 127 123 124 127 127 125 125 128 130 127 122 118 115 111 110 110 109 108 109 116 123 125 124 123 124 118 108 106 98 96 94 86 76 61 44 40
167 147 125 263 209 175 289 292 308 309 318 311 67 47 293 313 348 340 354 19 14 360 23 84 117 137 165 199 224 231 217 218 163 154 157 158 157 167 180 152 146 143 137 130 134 139 139 137 135 131 129 126 126 128 130 128 125 124 124 121 116 113 114 114 114 113 115 112 112 120 127 128 124 125 126 114 112 108 100 98 99 94 87 78 77 62 46
204 163 238 357 330 284 271 279 291 315 313 68 79 171 234 313 358 347 6 19 20 19 24 26 45 2 273 306 330 340 321 352 341 100 144 153 150 155 159 145 136 142 148 147 148 145 139 137 135 130 124 120 119 120 120 114 114 116 118 118 117 117 116 114 113 114 111 116 123 125 130 134 132 126 122 119 112 107 106 102 99 91 83 83 76 57 25
176 188 150 217 223 238 237 273 273 302 47 54 142 236 222 7 359 1 27 32 22 34 50 51 60 342 7 47 54 48 27 6 344 13 87 103 101 76 85 126 126 117 106 115 117 119 128 132 130 126 121 115 115 116 112 112 118 121 118 116 114 112 109 110 113 112 112 117 123 128 127 116 113 108 108 108 106 103 102 102 97 89 84 73 65 39 10
57 43 75 19 147 276 267 299 349 9 99 216 211 358 343 328 19 44 35 38 21 56 54 47 62 32 33 43 46 41 43 40 19 359 36 109 148 144 144 139 120 116 102 102 110 117 118 118 121 124 121 120 121 120 119 126 126 120 114 111 108 104 104 108 111 113 116 121 121 119 115 111 106 104 103 104 102 100 99 96 92 88 73 63 59 41 22
158 112 130 183 208 234 293 102 134 263 166 187 160 115 6 335 17 51 60 30 19 71 98 86 83 97 81 48 62 56 48 47 39 19 1 27 48 111 100 88 92 97 102 97 93 86 88 89 99 116 122 123 125 123 125 128 120 115 111 109 107 109 113 114 114 109 110 114 113 112 112 107 103 104 107 109 107 105 104 102 98 91 77 69 56 47 28
126 194 209 248 238 230 277 138 149 153 180 109 116 110 141 90 11 15 80 79 13 95 105 80 89 97 75 92 86 84 67 62 52 40 11 350 347 42 117 117 115 116 115 113 101 89 85 84 83 89 103 114 113 112 115 115 115 114 112 110 111 116 119 116 108 113 113 113 114 113 113 109 106 110 112 114 109 107 105 97 98 100 91 68 61 43 31
227 221 202 255 318 20 0 15 131 123 83 92 100 107 92 117 169 107 118 162 156 172 207 113 20 42 73 72 82 90 84 77 66 59 49 16 347 338 33 90 99 101 99 98 100 98 88 88 93 98 103 112 114 117 118 115 115 114 112 112 112 110 102 98 109 112 106 97 92 91 88 88 95 101 114 116 113 109 100 95 95 102 104 87 66 57 44
94 182 304 5 218 331 328 352 351 74 104 126 127 102 116 148 151 136 177 162 155 103 72 98 106 77 83 91 74 82 96 96 91 80 71 43 27 343 337 67 106 106 106 104 103 98 94 96 107 111 110 108 117 123 123 122 118 115 115 115 109 101 105 107 106 107 104 104 98 92 89 88 89 92 99 105 109 108 108 107 98 89 89 88 73 59 39
120 218 237 252 261 233 213 172 73 79 90 87 87 110 131 131 133 129 163 177 100 115 104 114 100 88 91 98 95 84 82 99 102 101 95 85 48 8 334 332 85 102 105 112 114 115 118 118 114 113 113 117 122 125 126 126 126 125 127 132 133 134 129 125 123 118 113 109 104 96 97 103 103 91 81 105 110 119 129 127 122 122 117 107 110 103 68
283 303 311 307 331 342 330 343 74 188 142 110 85 90 97 109 96 82 57 55 66 90 111 115 108 98 85 111 118 113 111 103 106 110 107 103 96 58 1 330 355 72 107 106 108 109 107 109 109 106 107 113 121 127 129 133 135 136 138 136 134 131 129 130 129 124 118 119 117 113 105 87 72 87 127 123 113 85 18 187 152 149 150 170 186 203 147
303 207 243 171 186 292 304 340 343 21 63 102 111 87 70 76 96 91 78 50 52 75 86 101 113 116 123 122 118 113 116 122 128 126 118 112 110 110 99 18 351 35 73 92 96 92 90 94 101 105 108 111 117 123 128 133 135 135 135 132 130 127 126 126 127 125 126 123 123 122 117 114 106 79 44 55 62 114 113 64 58 43 140 178 198 189 166
234 244 238 196 164 186 224 210 297 63 79 111 110 113 115 96 106 128 112 100 55 63 53 77 120 123 128 129 121 118 127 134 134 132 126 120 117 116 109 93 57 355 46 97 102 107 114 120 121 122 123 129 132 137 137 140 140 140 139 134 129 129 131 135 139 133 130 125 126 122 121 119 119 117 105 58 40 41 56 76 61 59 58 69 53 352 310
237 218 213 186 145 180 258 286 212 109 124 108 116 142 146 149 142 129 130 156 141 132 106 93 144 143 133 138 128 126 131 131 129 127 124 121 121 122 118 116 108 82 343 96 116 126 130 131 130 131 135 143 147 151 151 150 145 140 141 138 138 139 139 141 140 135 133 132 129 124 121 123 127 128 121 107 63 36 39 5 1 11 314 310 296 305 320
221 215 188 187 167 192 226 205 250 140 137 131 135 151 152 137 133 141 132 158 167 150 149 145 160 168 150 157 144 142 140 137 130 132 136 126 121 121 124 125 129 129 134 282 120 131 139 141 139 143 147 154 157 159 157 152 144 137 138 139 138 144 146 145 142 138 136 136 135 133 137 137 136 132 125 125 125 124 356 355 308 301 303 299 298 292 303
207 190 161 149 114 127 149 37 7 18 159 133 110 100 113 133 145 138 145 148 159 174 162 153 153 177 168 153 146 133 129 134 135 137 146 133 124 127 137 144 144 142 136 174 156 151 150 150 147 148 153 159 162 159 156 151 142 136 139 139 142 143 145 144 140 142 143 143 142 147 148 147 147 142 142 141 146 147 141 136 324 307 292 272 267 296 288
180 156 115 70 63 57 77 127 185 180 140 104 118 128 124 106 109 101 96 92 143 189 184 173 160 152 132 106 124 138 138 138 142 153 167 146 141 146 148 147 149 143 133 145 151 157 153 152 150 153 158 165 162 159 156 149 135 132 136 137 140 145 145 144 147 149 151 150 149 146 149 148 146 140 142 146 148 150 153 160 174 182 195 241 255 215 234
138 175 133 146 179 180 135 150 183 162 94 118 127 126 134 113 100 89 77 80 69 120 277 201 151 149 141 148 142 141 146 150 156 164 170 160 148 141 140 143 149 141 133 139 149 154 148 147 151 155 163 168 163 159 155 145 136 136 140 142 144 148 152 151 148 149 151 151 148 150 157 158 158 152 151 158 162 161 159 166 162 163 201 243 240 273 252
208 244 290 146 171 174 140 114 87 79 81 92 122 121 126 111 109 115 131 147 163 160 219 209 199 185 163 156 157 156 169 169 169 167 170 162 145 139 138 143 142 132 132 139 143 139 138 144 151 158 169 171 161 158 154 147 143 146 145 144 145 146 148 150 149 149 148 149 150 158 161 159 155 159 165 166 155 158 169 179 178 188 191 230 298 326 321
247 159 127 145 148 136 114 116 137 148 117 114 125 155 159 133 129 141 161 167 171 192 215 205 164 174 175 172 168 164 171 183 205 197 165 166 153 144 144 142 131 126 131 141 153 152 156 159 161 163 169 169 159 156 153 147 147 145 144 144 144 148 149 148 147 146 147 152 163 168 167 163 162 171 182 170 176 180 183 185 188 183 206 240 228 206 216
228 180 160 172 153 154 147 163 168 161 147 129 133 142 159 144 155 145 164 171 183 191 197 189 177 160 173 184 176 168 160 155 154 216 267 203 148 145 146 148 145 153 163 165 160 157 155 155 159 165 171 163 153 152 147 146 146 144 141 140 142 147 144 141 143 151 155 160 167 170 180 175 173 180 184 174 177 173 177 175 169 179 198 206 202 211 234
258 223 183 165 171 154 139 154 153 164 165 144 129 144 164 161 182 180 171 177 190 186 180 175 175 179 172 169 172 161 153 145 150 163 172 173 147 147 154 154 152 148 143 140 144 148 152 153 163 172 162 153 147 146 144 144 143 143 153 150 143 146 141 138 144 157 169 174 172 178 180 173 174 173 166 163 166 163 154 148 159 176 180 186 204 225 237
249 283 273 219 85 147 169 188 156 182 176 153 178 176 177 191 197 186 182 179 169 183 181 183 175 161 160 158 159 161 159 155 153 152 154 145 139 135 144 133 126 129 136 145 146 148 149 158 166 164 156 150 146 146 145 144 146 148 151 142 139 148 140 132 139 151 168 162 164 165 156 153 153 148 154 155 154 147 150 156 165 177 193 200 212 230 233
202 203 205 194 167 171 171 191 192 170 189 193 182 170 168 182 188 172 167 181 183 180 184 181 171 158 154 156 157 157 150 141 149 158 159 146 139 126 124 119 117 119 118 121 125 132 143 152 157 161 156 149 147 146 145 143 143 147 145 137 140 142 141 131 134 146 157 157 160 150 139 135 139 147 155 154 148 146 155 162 173 179 195 218 235 238 226
153 169 155 139 125 126 133 146 181 168 159 176 215 203 174 176 173 179 176 178 197 195 174 150 147 150 152 155 161 167 173 174 167 158 155 143 134 125 120 117 111 109 113 123 135 144 153 157 158 155 152 148 147 145 145 144 145 143 143 142 145 142 139 129 140 154 164 157 134 126 127 127 138 148 157 151 154 159 158 163 173 175 187 211 240 239 215
136 135 123 116 123 124 120 119 119 150 171 181 191 187 168 190 180 170 188 201 176 129 138 151 151 153 164 170 174 181 182 166 140 129 120 117 118 116 123 132 132 124 123 128 148 152 153 158 160 153 150 149 144 146 146 147 145 146 145 143 149 145 135 137 144 142 142 130 130 141 144 158 145 133 147 156 146 146 157 162 174 185 190 205 216 223 239
145 148 154 146 129 118 118 110 97 90 131 167 197 213 168 178 197 211 201 153 147 150 154 156 160 176 187 193 190 179 155 137 138 135 130 124 123 125 132 138 134 135 140 152 177 164 160 164 160 149 145 147 147 150 156 150 148 152 148 147 149 145 142 139 139 133 138 141 144 153 168 162 147 134 126 138 145 159 161 167 177 194 206 213 218 224 234
160 144 150 149 146 132 132 129 114 84 75 55 12 238 199 180 183 184 195 195 174 161 164 175 187 190 175 142 152 156 137 128 129 133 133 134 136 131 140 148 147 147 165 177 165 160 162 166 159 146 147 146 152 154 159 155 150 149 151 158 157 150 146 145 143 138 144 151 156 156 161 161 151 140 134 141 151 160 170 173 182 196 210 221 229 231 235
59 58 80 87 77 72 76 65 71 70 77 86 61 11 322 216 164 152 174 208 213 168 166 175 160 146 155 168 172 152 139 141 141 141 140 140 140 139 149 161 170 161 135 131 149 157 161 163 155 146 146 150 154 158 159 156 150 150 157 159 158 154 151 150 151 145 151 155 148 157 172 170 160 151 151 161 166 170 173 180 189 203 209 220 220 238 241
95 92 96 94 92 95 89 82 79 84 78 84 82 56 333 333 168 165 161 166 218 186 174 162 167 170 171 176 181 170 153 149 148 141 128 123 113 109 99 83 110 120 131 138 147 161 162 155 149 152 151 154 156 161 164 160 152 152 155 159 161 159 157 157 148 144 156 156 171 171 178 178 173 168 161 162 169 185 193 196 200 212 224 229 225 233 235
91 104 104 102 104 96 104 102 96 94 91 79 80 83 49 122 140 133 153 170 189 185 185 176 173 178 184 185 179 155 127 121 101 103 119 119 118 128 144 174 192 160 153 155 162 163 161 157 152 156 159 156 161 162 162 164 157 155 160 162 162 163 163 161 156 161 165 171 173 172 180 180 181 179 174 168 178 190 204 202 203 220 227 218 222 225 225
63 68 79 86 105 114 118 119 116 98 98 118 122 121 119 185 166 186 185 147 149 177 180 174 185 180 173 159 127 117 120 128 127 127 133 145 153 156 169 200 182 162 155 152 159 160 157 157 157 159 159 159 164 168 164 163 159 162 163 166 167 165 159 161 166 174 175 173 174 174 175 176 180 188 187 182 182 187 200 207 217 229 239 228 225 223 218
356 69 81 96 121 135 142 135 116 129 139 163 167 154 97 300 237 148 136 148 156 168 173 168 184 184 173 153 146 148 134 131 139 148 178 197 182 178 184 174 136 158 155 155 161 162 161 155 155 160 163 161 167 173 164 156 166 168 171 172 170 169 163 165 174 171 168 170 172 172 171 176 182 185 186 189 196 197 197 200 209 223 234 236 231 230 231
339 338 4 143 168 172 160 151 153 154 168 211 187 169 126 90 321 274 147 138 153 164 166 169 172 176 172 166 154 148 152 155 157 171 171 173 210 246 238 123 156 162 161 158 165 165 163 157 154 167 172 169 171 174 169 162 172 176 179 179 177 170 173 170 171 170 172 174 174 175 178 179 182 184 183 189 198 207 210 210 214 221 233 234 233 225 234
357 325 312 309 318 190 156 163 175 205 218 189 128 123 131 150 236 276 260 173 137 150 163 171 174 174 178 176 176 172 172 177 177 170 162 171 186 212 202 166 162 166 173 166 165 164 161 161 163 170 177 177 179 180 171 170 178 182 186 185 181 174 178 172 171 175 179 179 179 179 177 180 182 182 184 191 195 200 209 212 220 221 225 230 234 232 228
18 340 299 240 130 169 196 209 230 240 54 69 343 292 192 166 184 199 245 217 195 179 180 179 183 188 189 184 183 178 174 180 185 183 181 175 184 197 183 178 180 185 177 169 160 165 167 166 165 175 180 181 182 184 179 179 183 188 188 187 188 177 179 187 175 175 179 181 180 178 180 182 179 183 188 192 200 202 211 215 222 224 224 226 222 217 218
58 8 308 305 21 347 358 323 280 298 336 345 275 284 302 151 168 175 196 217 230 222 206 196 189 193 191 182 171 169 172 178 195 206 199 198 185 153 173 183 186 183 175 174 171 169 168 169 173 176 180 182 184 183 181 184 188 192 190 193 191 183 178 189 187 179 182 187 184 183 185 183 185 188 192 200 204 207 212 215 222 228 229 227 225 218 210
121 161 231 259 345 330 337 351 334 281 278 251 237 243 215 179 191 202 210 219 231 245 252 259 248 226 206 198 194 188 176 169 181 205 198 192 174 163 171 182 186 181 180 180 179 179 175 173 173 176 179 180 186 185 186 190 193 194 194 194 191 187 184 190 192 188 187 191 185 182 187 190 192 192 195 198 205 208 210 211 219 225 226 214 210 208 202
190 192 217 202 254 275 280 61 72 346 252 260 283 268 224 184 190 201 208 207 213 221 229 222 218 226 232 224 207 201 204 192 179 189 187 179 173 176 183 187 185 180 180 184 183 181 179 177 176 177 178 180 183 185 190 195 197 199 198 194 191 189 186 190 196 193 190 190 188 185 187 190 191 191 197 204 207 209 208 212 219 218 215 210 208 205 199
207 245 291 268 265 281 296 336 239 238 255 265 258 246 229 187 221 254 210 179 196 209 220 225 216 212 215 224 223 209 197 204 224 134 160 169 169 171 175 181 187 187 184 184 185 181 181 181 178 176 177 182 183 185 192 194 200 200 199 194 190 189 196 202 200 194 189 189 188 188 189 194 193 195 196 199 205 209 210 211 211 214 209 198 193 195 197
216 180 210 226 233 240 231 201 197 207 228 240 240 241 215 198 225 222 203 197 193 207 214 228 241 232 227 226 227 210 191 187 184 163 161 168 168 173 173 180 185 186 187 183 182 181 177 180 183 181 179 179 182 189 193 196 197 199 196 193 191 188 196 207 203 191 186 185 187 189 190 194 196 199 197 198 200 205 208 208 207 204 201 199 195 194 197
296 245 228 228 227 237 246 257 262 244 236 242 242 232 228 228 226 231 245 230 206 205 209 208 225 225 219 222 219 208 187 186 180 173 168 169 173 179 169 162 173 184 186 187 184 180 180 182 180 181 178 180 184 189 190 189 194 199 198 194 191 192 200 203 201 193 186 184 184 191 193 190 189 196 201 200 197 194 196 199 199 197 197 203 210 211 209